H1 CPF 2 NER 2021 7 29 9 210 01 glonass143 H2 2007501 9143 46805 2021 7 29 0 0 0 2021 8 1 23 45 0 900 1 1 0 0 0 1 H9 10 0 59424 0.00000 0 -4637048.165 19404402.312 15899312.493 10 0 59424 900.00000 0 -5541885.420 20973360.289 13420840.336 10 0 59424 1800.00000 0 -6170803.031 22325467.940 10681703.597 10 0 59424 2700.00000 0 -6546384.564 23405331.102 7735040.938 10 0 59424 3600.00000 0 -6701817.523 24165336.468 4638057.701 10 0 59424 4500.00000 0 -6679240.315 24567667.487 1450916.301 10 0 59424 5400.00000 0 -6527713.054 24585930.267 -1764434.209 10 0 59424 6300.00000 0 -6300898.367 24206319.835 -4945466.426 10 0 59424 7200.00000 0 -6054551.026 23428276.537 -8030296.548 10 0 59424 8100.00000 0 -5843923.579 22264603.845 -10958895.457 10 0 59424 9000.00000 0 -5721198.920 20741041.579 -13674264.518 10 0 59424 9900.00000 0 -5733059.637 18895311.776 -16123552.231 10 0 59424 10800.00000 0 -5918498.267 16775676.752 -18259089.306 10 0 59424 11700.00000 0 -6306962.238 14439069.522 -20039321.418 10 0 59424 12600.00000 0 -6916912.989 11948874.934 -21429621.088 10 0 59424 13500.00000 0 -7754861.074 9372454.328 -22402962.771 10 0 59424 14400.00000 0 -8814918.789 6778517.287 -22940448.122 10 0 59424 15300.00000 0 -10078889.803 4234450.217 -23031671.409 10 0 59424 16200.00000 0 -11516892.584 1803713.072 -22674918.335 10 0 59424 17100.00000 0 -13088491.814 -456587.685 -21877194.783 10 0 59424 18000.00000 0 -14744290.522 -2497849.246 -20654085.269 10 0 59424 18900.00000 0 -16427916.309 -4281757.108 -19029444.249 10 0 59424 19800.00000 0 -18078318.415 -5781630.985 -17034926.478 10 0 59424 20700.00000 0 -19632279.259 -6983277.222 -14709365.880 10 0 59424 21600.00000 0 -21027035.078 -7885313.810 -12098015.191 10 0 59424 22500.00000 0 -22202895.687 -8498956.259 -9251661.351 10 0 59424 23400.00000 0 -23105753.342 -8847275.152 -6225634.177 10 0 59424 24300.00000 0 -23689375.415 -8963958.492 -3078727.844 10 0 59424 25200.00000 0 -23917384.699 -8891632.637 127943.567 10 0 59424 26100.00000 0 -23764844.328 -8679814.067 3332133.845 10 0 59424 27000.00000 0 -23219380.966 -8382579.644 6471672.399 10 0 59424 27900.00000 0 -22281799.387 -8056054.580 9485668.466 10 0 59424 28800.00000 0 -20966162.898 -7755824.790 12315688.262 10 0 59424 29700.00000 0 -19299336.405 -7534383.102 14906882.527 10 0 59424 30600.00000 0 -17320011.245 -7438717.188 17209043.019 10 0 59424 31500.00000 0 -15077252.423 -7508140.720 19177568.031 10 0 59424 32400.00000 0 -12628628.481 -7772458.990 20774319.077 10 0 59424 33300.00000 0 -10038001.226 -8250546.027 21968352.997 10 0 59424 34200.00000 0 -7373066.501 -8949393.048 22736516.141 10 0 59424 35100.00000 0 -4702747.044 -9863668.500 23063889.887 10 0 59424 36000.00000 0 -2094544.461 -10975808.719 22944079.388 10 0 59424 36900.00000 0 388041.058 -12256636.329 22379340.163 10 0 59424 37800.00000 0 2687917.517 -13666481.647 21380539.992 10 0 59424 38700.00000 0 4756535.695 -15156761.530 19966956.352 10 0 59424 39600.00000 0 6555663.803 -16671950.965 18165912.559 10 0 59424 40500.00000 0 8058729.263 -18151866.213 16012258.691 10 0 59424 41400.00000 0 9251672.363 -19534164.999 13547706.155 10 0 59424 42300.00000 0 10133276.493 -20756959.691 10820027.792 10 0 59424 43200.00000 0 10714961.562 -21761434.223 7882138.005 10 0 59424 44100.00000 0 11020049.473 -22494354.781 4791070.016 10 0 59424 45000.00000 0 11082532.775 -22910368.181 1606869.777 10 0 59424 45900.00000 0 10945398.740 -22973990.355 -1608572.092 10 0 59424 46800.00000 0 10658579.987 -22661200.078 -4792727.338 10 0 59424 47700.00000 0 10276618.916 -21960569.478 -7883651.989 10 0 59424 48600.00000 0 9856145.473 -20873882.377 -10821198.584 10 0 59424 49500.00000 0 9453275.969 -19416213.102 -13548194.313 10 0 59424 50400.00000 0 9121044.025 -17615461.381 -16011561.112 10 0 59424 51300.00000 0 8906973.471 -15511361.959 -18163355.221 10 0 59424 52200.00000 0 8850896.845 -13154009.819 -19961705.381 10 0 59424 53100.00000 0 8983112.669 -10601962.471 -21371630.956 10 0 59424 54000.00000 0 9322960.114 -7919998.450 -22365723.981 10 0 59424 54900.00000 0 9877871.805 -5176625.531 -22924681.942 10 0 59424 55800.00000 0 10642945.210 -2441442.638 -23037681.115 10 0 59424 56700.00000 0 11601050.904 217534.795 -22702583.562 10 0 59424 57600.00000 0 12723473.404 2736474.881 -21925974.144 10 0 59424 58500.00000 0 13971057.612 5058146.952 -20723027.178 10 0 59424 59400.00000 0 15295812.664 7134056.881 -19117205.699 10 0 59424 60300.00000 0 16642905.693 8926212.194 -17139799.406 10 0 59424 61200.00000 0 17952961.513 10408444.504 -14829310.571 10 0 59424 62100.00000 0 19164571.424 11567235.666 -12230700.062 10 0 59424 63000.00000 0 20216905.477 12402014.825 -9394508.341 10 0 59424 63900.00000 0 21052318.170 12924915.685 -6375868.848 10 0 59424 64800.00000 0 21618837.867 13160006.118 -3233433.234 10 0 59424 65700.00000 0 21872435.147 13142024.285 -28229.599 10 0 59424 66600.00000 0 21778974.663 12914676.083 3177523.650 10 0 59424 67500.00000 0 21315768.449 12528567.074 6321625.092 10 0 59424 68400.00000 0 20472665.493 12038857.177 9343095.129 10 0 59424 69300.00000 0 19252631.826 11502737.815 12183354.912 10 0 59424 70200.00000 0 17671796.847 10976838.336 14787356.737 10 0 59424 71100.00000 0 15758963.718 10514671.171 17104644.398 10 0 59424 72000.00000 0 13554604.098 10164223.245 19090323.521 10 0 59424 72900.00000 0 11109378.620 9965794.758 20705923.858 10 0 59424 73800.00000 0 8482244.014 9950175.870 21920137.771 10 0 59424 74700.00000 0 5738224.729 10137237.664 22709421.361 10 0 59424 75600.00000 0 2945940.442 10534996.381 23058447.420 10 0 59424 76500.00000 0 174990.744 11139190.347 22960401.970 10 0 59424 77400.00000 0 -2506695.843 11933387.759 22417118.843 10 0 59424 78300.00000 0 -5035439.979 12889621.524 21439049.655 10 0 59424 79200.00000 0 -7354211.126 13969525.569 20045069.247 10 0 59424 80100.00000 0 -9414750.111 15125926.115 18262119.646 10 0 59424 81000.00000 0 -11179327.340 16304822.380 16124698.427 10 0 59424 81900.00000 0 -12622064.206 17447674.724 13674200.239 10 0 59424 82800.00000 0 -13729762.938 18493904.966 10958123.195 10 0 59424 83700.00000 0 -14502210.563 19383504.305 8029154.513 10 0 59424 84600.00000 0 -14951944.448 20059639.242 4944152.347 10 0 59424 85500.00000 0 -15103489.369 20471145.377 1763043.254 10 0 59425 0.00000 0 -14992098.471 20574803.331 -1452343.359 10 0 59425 900.00000 0 -14662051.489 20337299.293 -4639481.264 10 0 59425 1800.00000 0 -14164582.491 19736787.383 -7736368.856 10 0 59425 2700.00000 0 -13555525.467 18763984.394 -10682742.746 10 0 59425 3600.00000 0 -12892777.939 17422751.486 -13421258.129 10 0 59425 4500.00000 0 -12233690.901 15730135.455 -15898612.282 10 0 59425 5400.00000 0 -11632496.316 13715867.279 -18066588.577 10 0 59425 6300.00000 0 -11137881.871 11421337.792 -19883000.087 10 0 59425 7200.00000 0 -10790816.217 8898092.772 -21312513.952 10 0 59425 8100.00000 0 -10622717.200 6205909.892 -22327340.396 10 0 59425 9000.00000 0 -10654040.778 3410537.484 -22907773.017 10 0 59425 9900.00000 0 -10893350.388 581189.339 -23042570.042 10 0 59425 10800.00000 0 -11336906.028 -2212100.306 -22729169.501 10 0 59425 11700.00000 0 -11968790.266 -4901151.756 -21973734.490 10 0 59425 12600.00000 0 -12761565.619 -7422233.761 -20791028.031 10 0 59425 13500.00000 0 -13677435.372 -9718469.000 -19204120.300 10 0 59425 14400.00000 0 -14669858.568 -11741951.815 -17243934.182 10 0 59425 15300.00000 0 -15685550.836 -13455490.894 -14948638.278 10 0 59425 16200.00000 0 -16666786.430 -14833905.555 -12362899.375 10 0 59425 17100.00000 0 -17553904.174 -15864822.977 -9537009.109 10 0 59425 18000.00000 0 -18287911.416 -16548944.617 -6525902.125 10 0 59425 18900.00000 0 -18813076.010 -16899772.481 -3388085.102 10 0 59425 19800.00000 0 -19079396.893 -16942808.446 -184497.716 10 0 59425 20700.00000 0 -19044848.998 -16714261.980 3022671.880 10 0 59425 21600.00000 0 -18677307.873 -16259322.130 6171193.863 10 0 59425 22500.00000 0 -17956072.906 -15630067.793 9200002.213 10 0 59425 23400.00000 0 -16872925.026 -14883105.196 12050375.391 10 0 59425 24300.00000 0 -15432674.353 -14077032.715 14667069.542 10 0 59425 25200.00000 0 -13653174.538 -13269840.016 16999382.648 10 0 59425 26100.00000 0 -11564802.827 -12516350.892 19002129.593 10 0 59425 27000.00000 0 -9209426.978 -11865817.041 20636510.037 10 0 59425 27900.00000 0 -6638901.195 -11359763.379 21870853.190 10 0 59425 28800.00000 0 -3913152.747 -11030174.863 22681225.871 10 0 59425 29700.00000 0 -1097937.488 -10898100.405 23051892.881 10 0 59425 30600.00000 0 1737643.999 -10972732.134 22975621.321 10 0 59425 31500.00000 0 4523767.966 -11250998.546 22453823.197 10 0 59425 32400.00000 0 7192539.633 -11717688.847 21496533.482 10 0 59425 33300.00000 0 9680567.284 -12346103.805 20122223.592 10 0 59425 34200.00000 0 11931352.636 -13099206.553 18357453.164 10 0 59425 35100.00000 0 13897399.197 -13931225.992 16236365.861 10 0 59425 36000.00000 0 15541951.622 -14789646.325 13800037.836 10 0 59425 36900.00000 0 16840293.965 -15617499.908 11095690.406 10 0 59425 37800.00000 0 17780552.874 -16355867.455 8175781.191 10 0 59425 38700.00000 0 18363972.240 -16946480.491 5096990.561 10 0 59425 39600.00000 0 18604647.745 -17334316.124 1919122.691 10 0 59425 40500.00000 0 18528732.551 -17470074.022 -1296057.510 10 0 59425 41400.00000 0 18173147.702 -17312430.059 -4486028.816 10 0 59425 42300.00000 0 17583851.887 -16829970.126 -7588735.309 10 0 59425 43200.00000 0 16813744.047 -16002721.019 -10543800.762 10 0 59425 44100.00000 0 15920288.030 -14823212.141 -13293711.255 10 0 59425 45000.00000 0 14962960.395 -13297021.744 -15784942.031 10 0 59425 45900.00000 0 14000629.998 -11442783.214 -17969005.917 10 0 59425 46800.00000 0 13088980.802 -9291649.823 -19803402.277 10 0 59425 47700.00000 0 12278087.435 -6886239.427 -21252447.613 10 0 59425 48600.00000 0 11610246.291 -4279102.449 -22287971.474 10 0 59425 49500.00000 0 11118153.919 -1530776.586 -22889864.246 10 0 59425 50400.00000 0 10823509.567 1292490.914 -23046466.315 10 0 59425 51300.00000 0 10736100.562 4121258.796 -22754791.417 10 0 59425 52200.00000 0 10853408.677 6885540.727 -22020580.182 10 0 59425 53100.00000 0 11160753.548 9517477.579 -20858183.216 10 0 59425 54000.00000 0 11631966.458 11953922.335 -19290276.343 10 0 59425 54900.00000 0 12230565.455 14138830.624 -17347413.802 10 0 59425 55800.00000 0 12911381.575 16025358.010 -15067428.382 10 0 59425 56700.00000 0 13622566.992 17577577.631 -12494690.344 10 0 59425 57600.00000 0 14307899.800 18771747.707 -9679239.799 10 0 59425 58500.00000 0 14909287.661 19597077.250 -6675809.675 10 0 59425 59400.00000 0 15369364.230 20055959.538 -3542758.582 10 0 59425 60300.00000 0 15634068.425 20163665.114 -340934.591 10 0 59425 61200.00000 0 15655097.415 19947508.839 2867507.592 10 0 59425 62100.00000 0 15392129.654 19445527.447 6020312.833 10 0 59425 63000.00000 0 14814724.079 18704724.571 9056331.607 10 0 59425 63900.00000 0 13903815.342 17778958.046 11916702.346 10 0 59425 64800.00000 0 12652741.997 16726559.104 14545987.395 10 0 59425 65700.00000 0 11067764.121 15607783.914 16893240.963 10 0 59425 66600.00000 0 9168048.257 14482204.613 18912988.898 10 0 59425 67500.00000 0 6985119.648 13406149.085 20566102.137 10 0 59425 68400.00000 0 4561803.694 12430296.413 21820547.771 10 0 59425 69300.00000 0 1950699.700 11597528.136 22652004.011 10 0 59425 70200.00000 0 -787750.938 10941124.655 23044327.964 10 0 59425 71100.00000 0 -3587523.396 10483381.673 22989867.708 10 0 59425 72000.00000 0 -6379502.665 10234704.138 22489612.868 10 0 59425 72900.00000 0 -9094109.574 10193215.408 21553180.758 10 0 59425 73800.00000 0 -11663952.178 10344898.044 20198637.878 10 0 59425 74700.00000 0 -14026393.686 10664260.652 18452159.515 10 0 59425 75600.00000 0 -16125931.355 11115503.297 16347533.046 10 0 59425 76500.00000 0 -17916288.179 11654133.169 13925513.419 10 0 59425 77400.00000 0 -19362130.583 12228963.171 11233042.198 10 0 59425 78300.00000 0 -20440340.696 12784409.781 8322344.311 10 0 59425 79200.00000 0 -21140789.906 13262993.530 5249919.207 10 0 59425 80100.00000 0 -21466581.159 13607936.486 2075445.604 10 0 59425 81000.00000 0 -21433749.644 13765746.576 -1139379.015 10 0 59425 81900.00000 0 -21070434.375 13688678.636 -4332041.389 10 0 59425 82800.00000 0 -20415555.574 13336966.996 -7440433.910 10 0 59425 83700.00000 0 -19517053.851 12680733.770 -10404069.996 10 0 59425 84600.00000 0 -18429765.856 11701490.626 -13165268.875 10 0 59425 85500.00000 0 -17213026.645 10393169.009 -15670285.745 10 0 59426 0.00000 0 -15928100.557 8762633.840 -17870364.505 10 0 59426 900.00000 0 -14635549.803 6829657.106 -19722692.193 10 0 59426 1800.00000 0 -13392651.814 4626352.475 -21191235.538 10 0 59426 2700.00000 0 -12250975.710 2196091.590 -22247443.897 10 0 59426 3600.00000 0 -11254218.809 -408051.611 -22870804.528 10 0 59426 4500.00000 0 -10436395.302 -3125265.228 -23049239.662 10 0 59426 5400.00000 0 -9820452.462 -5889290.495 -22779338.037 10 0 59426 6300.00000 0 -9417372.204 -8630944.633 -22066416.756 10 0 59426 7200.00000 0 -9225795.012 -11280770.638 -20924412.615 10 0 59426 8100.00000 0 -9232181.130 -13771704.026 -19375605.396 10 0 59426 9000.00000 0 -9411501.206 -16041645.955 -17450178.746 10 0 59426 9900.00000 0 -9728426.297 -18035835.998 -15185627.493 10 0 59426 10800.00000 0 -10138966.033 -19708926.400 -12626023.119 10 0 59426 11700.00000 0 -10592484.943 -21026672.152 -9821151.890 10 0 59426 12600.00000 0 -11034010.980 -21967167.289 -6825542.700 10 0 59426 13500.00000 0 -11406738.077 -22521576.955 -3697403.821 10 0 59426 14400.00000 0 -11654616.449 -22694335.930 -497489.508 10 0 59426 15300.00000 0 -11724920.759 -22502806.675 2712081.128 10 0 59426 16200.00000 0 -11570687.375 -21976412.644 5869029.745 10 0 59426 17100.00000 0 -11152917.563 -21155284.527 8912125.384 10 0 59426 18000.00000 0 -10442453.532 -20088477.352 11782368.492 10 0 59426 18900.00000 0 -9421448.085 -18831834.133 14424129.612 10 0 59426 19800.00000 0 -8084365.753 -17445586.241 16786221.093 10 0 59426 20700.00000 0 -6438472.996 -15991791.296 18822881.529 10 0 59426 21600.00000 0 -4503796.276 -14531715.831 20494654.720 10 0 59426 22500.00000 0 -2312548.880 -13123271.817 21769146.992 10 0 59426 23400.00000 0 91950.663 -11818613.660 22621649.029 10 0 59426 24300.00000 0 2656824.856 -10661995.340 23035611.031 10 0 59426 25200.00000 0 5321585.464 -9687976.359 23002962.520 10 0 59426 26100.00000 0 8020404.321 -8920050.776 22524270.915 10 0 59426 27000.00000 0 10684614.120 -8369755.991 21608735.739 10 0 59426 27900.00000 0 13245337.002 -8036298.169 20274018.143 10 0 59426 28800.00000 0 15636133.100 -7906709.885 18545908.333 10 0 59426 29700.00000 0 17795560.171 -7956533.467 16457836.360 10 0 59426 30600.00000 0 19669538.644 -8151001.631 14050234.573 10 0 59426 31500.00000 0 21213423.938 -8446666.153 11369763.033 10 0 59426 32400.00000 0 22393699.752 -8793406.322 8468411.846 10 0 59426 33300.00000 0 23189221.401 -9136732.703 5402497.031 10 0 59426 34200.00000 0 23591956.766 -9420288.873 2231568.993 10 0 59426 35100.00000 0 23607193.416 -9588445.057 -982745.334 10 0 59426 36000.00000 0 23253202.832 -9588873.252 -4177943.952 10 0 59426 36900.00000 0 22560375.606 -9374993.840 -7291870.911 10 0 59426 37800.00000 0 21569863.987 -8908188.873 -10263932.541 10 0 59426 38700.00000 0 20331789.099 -8159686.861 -13036284.317 10 0 59426 39600.00000 0 18903088.733 -7112037.828 -15554964.230 10 0 59426 40500.00000 0 17345096.899 -5760114.681 -17770949.865 10 0 59426 41400.00000 0 15720957.606 -4111597.099 -19641117.975 10 0 59426 42300.00000 0 14092982.347 -2186916.198 -21129087.386 10 0 59426 43200.00000 0 12520062.833 -18660.990 -22205928.717 10 0 59426 44100.00000 0 11055247.987 2349529.495 -22850727.102 10 0 59426 45000.00000 0 9743586.984 4864542.847 -23050987.189 10 0 59426 45900.00000 0 8620328.603 7465773.436 -22802872.847 10 0 59426 46800.00000 0 7709551.837 10087423.934 -22111277.320 10 0 59426 47700.00000 0 7023284.434 12661032.522 -20989722.818 10 0 59426 48600.00000 0 6561145.248 15118120.796 -19460091.871 10 0 59426 49500.00000 0 6310524.149 17392852.335 -17552195.923 10 0 59426 50400.00000 0 6247290.624 19424591.403 -15303189.845 10 0 59426 51300.00000 0 6336999.844 21160255.549 -12756843.981 10 0 59426 52200.00000 0 6536544.074 22556364.515 -9962688.065 10 0 59426 53100.00000 0 6796178.590 23580700.495 -6975043.997 10 0 59426 54000.00000 0 7061835.527 24213511.295 -3851966.530 10 0 59426 54900.00000 0 7277627.044 24448206.999 -654112.775 10 0 59426 55800.00000 0 7388431.370 24291522.097 2556437.115 10 0 59426 56700.00000 0 7342451.917 23763137.460 5717384.913 10 0 59426 57600.00000 0 7093641.000 22894779.137 8767421.391 10 0 59426 58500.00000 0 6603885.608 21728832.791 11647411.945 10 0 59426 59400.00000 0 5844862.815 20316532.706 14301537.969 10 0 59426 60300.00000 0 4799486.438 18715801.756 16678372.269 10 0 59426 61200.00000 0 3462883.829 16988833.113 18731868.175 10 0 59426 62100.00000 0 1842861.224 15199514.722 20422243.988 10 0 59426 63000.00000 0 -40162.560 13410803.818 21716746.545 10 0 59426 63900.00000 0 -2153752.314 11682160.481 22590279.913 10 0 59426 64800.00000 0 -4454558.893 10067146.464 23025887.885 10 0 59426 65700.00000 0 -6889883.547 8611288.470 23015081.517 10 0 59426 66600.00000 0 -9399640.595 7350294.056 22558005.629 10 0 59426 67500.00000 0 -11918638.600 6308693.702 21663441.075 10 0 59426 68400.00000 0 -14379086.890 5498964.999 20348642.261 10 0 59426 69300.00000 0 -16713224.707 4921175.089 18639012.413 10 0 59426 70200.00000 0 -18855964.868 4563156.032 16567621.869 10 0 59426 71100.00000 0 -20747442.840 4401205.672 14174577.594 10 0 59426 72000.00000 0 -22335365.409 4401284.668 11506255.023 10 0 59426 72900.00000 0 -23577061.089 4520659.458 8614406.116 10 0 59426 73800.00000 0 -24441146.328 4709921.979 5555160.023 10 0 59426 74700.00000 0 -24908737.257 4915300.857 2387935.406 10 0 59426 75600.00000 0 -24974155.571 5081166.062 -825714.689 10 0 59426 76500.00000 0 -24645098.263 5152620.474 -4023302.728 10 0 59426 77400.00000 0 -23942263.482 5078067.771 -7142627.414 10 0 59426 78300.00000 0 -22898447.913 4811646.747 -10122990.783 10 0 59426 79200.00000 0 -21557153.451 4315427.599 -12906387.082 10 0 59426 80100.00000 0 -19970761.907 3561275.768 -15438639.322 10 0 59426 81000.00000 0 -18198354.814 2532302.947 -17670460.593 10 0 59426 81900.00000 0 -16303270.405 1223842.447 -19558418.866 10 0 59426 82800.00000 0 -14350500.905 -356093.631 -21065785.994 10 0 59426 83700.00000 0 -12404039.844 -2186895.973 -22163254.270 10 0 59426 84600.00000 0 -10524290.880 -4235976.117 -22829506.617 10 0 59426 85500.00000 0 -8765646.887 -6459895.942 -23051629.486 10 0 59427 0.00000 0 -7174340.425 -8805962.063 -22825360.813 10 0 59427 900.00000 0 -5786655.234 -11214219.225 -22155168.449 10 0 59427 1800.00000 0 -4627572.222 -13619759.288 -21054158.188 10 0 59427 2700.00000 0 -3709906.792 -15955250.328 -19543813.156 10 0 59427 3600.00000 0 -3033970.683 -18153580.273 -17653570.239 10 0 59427 4500.00000 0 -2587772.273 -20150504.871 -15420241.864 10 0 59427 5400.00000 0 -2347744.668 -21887189.825 -12887294.686 10 0 59427 6300.00000 0 -2279969.517 -23312541.214 -10103999.379 10 0 59427 7200.00000 0 -2341843.468 -24385227.126 -7124468.382 10 0 59427 8100.00000 0 -2484115.572 -25075306.573 -4006600.589 10 0 59427 9000.00000 0 -2653208.444 -25365398.138 -810953.761 10 0 59427 9900.00000 0 -2793724.184 -25251340.213 2400432.972 10 0 59427 10800.00000 0 -2851028.396 -24742316.043 5565243.438 10 0 59427 11700.00000 0 -2773802.592 -23860439.242 8622091.974 10 0 59427 12600.00000 0 -2516456.854 -22639817.997 11511710.668 10 0 59427 13500.00000 0 -2041300.656 -21125137.901 14178093.423 10 0 59427 14400.00000 0 -1320380.185 -19369823.211 16569575.063 10 0 59427 15300.00000 0 -336904.575 -17433853.743 18639825.067 10 0 59427 16200.00000 0 913799.208 -15381328.545 20348737.497 10 0 59427 17100.00000 0 2423843.485 -13277877.610 21663200.755 10 0 59427 18000.00000 0 4172868.282 -11188029.012 22557733.120 10 0 59427 18900.00000 0 6128658.451 -9172640.173 23014972.566 10 0 59427 19800.00000 0 8248265.121 -7286499.201 23026012.010 10 0 59427 20700.00000 0 10479586.206 -5576195.104 22590573.773 10 0 59427 21600.00000 0 12763341.867 -4078344.433 21717019.877 10 0 59427 22500.00000 0 15035364.375 -2818247.302 20422197.604 10 0 59427 23400.00000 0 17229108.583 -1809028.086 18731122.569 10 0 59427 24300.00000 0 19278279.816 -1051296.121 16676504.523 10 0 59427 25200.00000 0 21119470.689 -533340.208 14298123.889 10 0 59427 26100.00000 0 22694697.391 -231848.646 11642070.029 10 0 59427 27000.00000 0 23953729.713 -113124.414 8759854.967 10 0 59427 27900.00000 0 24856117.140 -134744.314 5707418.874 10 0 59427 28800.00000 0 25372825.555 -247591.966 2544046.214 10 0 59427 29700.00000 0 25487415.165 -398178.488 -668786.591 10 0 59427 30600.00000 0 25196709.315 -531152.194 -3868609.415 10 0 59427 31500.00000 0 24510925.180 -591890.299 -6993178.681 10 0 59427 32400.00000 0 23453260.161 -529061.881 -9981695.182 10 0 59427 33300.00000 0 22058950.811 -297052.266 -12775994.888 10 0 59427 34200.00000 0 20373843.581 141855.126 -15321688.591 10 0 59427 35100.00000 0 18452537.457 815633.271 -17569227.406 10 0 59427 36000.00000 0 16356176.580 1741081.831 -19474872.762 10 0 59427 36900.00000 0 14149985.854 2922874.956 -21001551.500 10 0 59427 37800.00000 0 11900653.133 4353128.005 -22119579.249 10 0 59427 38700.00000 0 9673667.851 6011502.566 -22807238.064 10 0 59427 39600.00000 0 7530727.621 7865846.246 -23051197.217 10 0 59427 40500.00000 0 5527321.068 9873341.181 -22846769.306 10 0 59427 41400.00000 0 3710587.458 11982113.737 -22197997.080 10 0 59427 42300.00000 0 2117541.907 14133238.391 -21117569.648 10 0 59427 43200.00000 0 773739.230 16263052.326 -19626570.078 10 0 59427 44100.00000 0 -307569.014 18305684.144 -17754059.555 10 0 59427 45000.00000 0 -1125750.550 20195691.077 -15536506.471 10 0 59427 45900.00000 0 -1692569.960 21870694.573 -13017071.779 10 0 59427 46800.00000 0 -2031438.997 23273904.122 -10244764.688 10 0 59427 47700.00000 0 -2176172.863 24356423.877 -7273485.438 10 0 59427 48600.00000 0 -2169306.561 25079245.764 -4160974.038 10 0 59427 49500.00000 0 -2060043.775 25414845.971 -967685.691 10 0 59427 50400.00000 0 -1901926.110 25348318.375 2244384.835 10 0 59427 51300.00000 0 -1750322.138 24877997.991 5412906.772 10 0 59427 52200.00000 0 -1659843.053 24015548.936 8476421.321 10 0 59427 53100.00000 0 -1681794.572 22785513.853 11375530.409 10 0 59427 54000.00000 0 -1861772.957 21224344.192 14054043.388 10 0 59427 54900.00000 0 -2237506.701 19378952.314 16460059.782 10 0 59427 55800.00000 0 -2837034.901 17304846.114 18546967.627 10 0 59427 56700.00000 0 -3677299.118 15063923.951 20274338.837 10 0 59427 57600.00000 0 -4763208.188 12722021.395 21608705.146 10 0 59427 58500.00000 0 -6087215.684 10346311.356 22524200.443 10 0 59427 59400.00000 0 -7629428.519 8002664.854 23003057.891 10 0 59427 60300.00000 0 -9358243.280 5753081.011 23035952.838 10 0 59427 61200.00000 0 -11231484.954 3653291.991 22622185.184 10 0 59427 62100.00000 0 -13198002.119 1750641.223 21769697.685 10 0 59427 63000.00000 0 -15199653.688 82321.977 20494929.494 10 0 59427 63900.00000 0 -17173605.865 -1325951.230 18822507.051 10 0 59427 64800.00000 0 -19054844.955 -2460783.871 16784777.403 10 0 59427 65700.00000 0 -20778802.257 -3321420.702 14421191.824 10 0 59427 66600.00000 0 -22283982.094 -3919530.094 11777550.566 10 0 59427 67500.00000 0 -23514483.363 -4278462.739 8905122.356 10 0 59427 68400.00000 0 -24422308.914 -4432016.040 5859654.806 10 0 59427 69300.00000 0 -24969365.353 -4422756.427 2700294.508 10 0 59427 70200.00000 0 -25129068.509 -4299970.669 -511562.419 10 0 59427 71100.00000 0 -24887486.053 -4117333.257 -3713466.853 10 0 59427 72000.00000 0 -24243968.141 -3930389.181 -6843136.388 10 0 59427 72900.00000 0 -23211238.469 -3793959.574 -9839673.825 10 0 59427 73800.00000 0 -21814941.042 -3759581.200 -12644759.864 10 0 59427 74700.00000 0 -20092661.011 -3873089.422 -15203795.763 10 0 59427 75600.00000 0 -18092460.360 -4172448.262 -17466972.970 10 0 59427 76500.00000 0 -15870989.665 -4685920.669 -19390248.219 10 0 59427 77400.00000 0 -13491255.208 -5430657.516 -20936204.630 10 0 59427 78300.00000 0 -11020135.052 -6411766.028 -22074781.874 10 0 59427 79200.00000 0 -8525748.148 -7621897.917 -22783861.206 10 0 59427 80100.00000 0 -6074786.500 -9041375.356 -23049694.154 10 0 59427 81000.00000 0 -3729921.716 -10638850.196 -22867166.864 10 0 59427 81900.00000 0 -1547393.760 -12372469.285 -22239895.304 10 0 59427 82800.00000 0 425118.014 -14191497.314 -21180149.859 10 0 59427 83700.00000 0 2150253.660 -16038329.463 -19708611.135 10 0 59427 84600.00000 0 3602289.107 -17850809.622 -17853961.982 10 0 59427 85500.00000 0 4767956.659 -19564757.127 -15652323.969 99